New Ulm, MN

4:08 AM CST on December 07, 2019 (GMT -0600)
New Ulm Municipal

Weather History for KULM - October, 2019

Change the Weather History Date:

Saturday, October 5, 2019

  Actual Average Record
Temperature  
Mean Temperature 52 °F -  
Max Temperature 59 °F 67 °F 92 °F (1963)
Min Temperature 46 °F 42 °F 23 °F (1952)
Degree Days  
Heating Degree Days 12    
Growing Degree Days 2 (Base 50)    
Moisture  
Dew Point 47 °F    
Average Humidity 86    
Maximum Humidity 100    
Minimum Humidity 63    
Precipitation  
Precipitation 0.00 in - - ()
Sea Level Pressure  
Sea Level Pressure 29.85 in    
Wind  
Wind Speed 12 mph ()    
Max Wind Speed 24 mph    
Max Gust Speed 34 mph    
Visibility 8.9 miles    
Events Rain , Thunderstorm    
Averages and records for this station are not official NWS values.
T = Trace of Precipitation, MM = Missing Value Source: Averaged Metar Reports

Daily Weather History Graph

Daily Weather History Graph

Search for Another Location

Airport or City:

Astronomy

Oct. 05, 2019 Rise Set
Actual Time 7:20 AM CDT 6:51 PM CDT
Civil Twilight 6:51 AM CDT 7:20 PM CDT
Nautical Twilight 6:17 AM CDT 7:54 PM CDT
Astronomical Twilight 5:43 AM CDT 8:28 PM CDT
Moon 2:59 PM CDT (10/5) No Moon Set
Length of Visible Light 12h 29m
Length of Day
11h 31m
Waxing Crescent, 50% of the Moon is Illuminated
Oct 5
Waxing Crescent
Oct 13
Full
Oct 21
Last Quarter
Oct 27
New
Nov 4
First Quarter

Hourly Weather History & Observations

Time (CDT) Temp. Windchill Dew Point Humidity Pressure Visibility Wind Dir Wind Speed Gust Speed Precip Events Conditions
12:15 AM 48.2 °F - 42.8 °F 82% 30.11 in 10.0 mi ESE 8.1 mph - N/A Thunderstorm Overcast
12:16 AM 48.2 °F - 42.8 °F 82% 30.11 in 10.0 mi ESE 9.2 mph - N/A Thunderstorm Overcast
12:35 AM 48.2 °F - 42.8 °F 82% 30.10 in 10.0 mi SE 10.4 mph - N/A   Overcast
12:36 AM 48.2 °F - 42.8 °F 82% 30.10 in 10.0 mi SE 10.4 mph - N/A   Overcast
12:55 AM 48.2 °F - 44.6 °F 87% 30.08 in 10.0 mi ESE 11.5 mph - N/A Rain Light Rain
12:56 AM 48.2 °F - 44.6 °F 87% 30.08 in 10.0 mi ESE 9.2 mph - N/A Rain Light Rain
1:15 AM 48.2 °F - 44.6 °F 87% 30.07 in 10.0 mi ESE 10.4 mph - N/A   Overcast
1:35 AM 48.2 °F - 44.6 °F 87% 30.06 in 10.0 mi ESE 8.1 mph - N/A Rain Rain
1:55 AM 48.2 °F - 44.6 °F 87% 30.05 in 10.0 mi ESE 9.2 mph - N/A Rain Heavy Rain
1:56 AM 48.2 °F - 44.6 °F 87% 30.05 in 10.0 mi ESE 9.2 mph - N/A Rain Rain
2:15 AM 48.2 °F - 46.4 °F 93% 30.03 in 10.0 mi ESE 12.7 mph - N/A Rain Light Rain
2:16 AM 48.2 °F - 46.4 °F 93% 30.03 in 10.0 mi ESE 12.7 mph - N/A Rain Light Rain
2:35 AM 48.2 °F - 46.4 °F 93% 30.01 in 10.0 mi ESE 12.7 mph - N/A   Overcast
2:55 AM 48.2 °F - 46.4 °F 93% 29.99 in 10.0 mi ESE 15.0 mph - N/A Rain , Thunderstorm Light Thunderstorms and Rain
2:56 AM 48.2 °F - 46.4 °F 93% 29.99 in 10.0 mi ESE 13.8 mph - N/A Rain , Thunderstorm Light Thunderstorms and Rain
3:15 AM 48.2 °F - 46.4 °F 93% 30.00 in 10.0 mi SE 11.5 mph - N/A Rain Light Rain
3:16 AM 48.2 °F - 46.4 °F 93% 29.99 in 10.0 mi SE 11.5 mph - N/A Rain Light Rain
3:35 AM 48.2 °F - 46.4 °F 93% 29.97 in 10.0 mi SE 11.5 mph - N/A Rain , Thunderstorm Light Thunderstorms and Rain
3:55 AM 48.2 °F - 46.4 °F 93% 29.95 in 10.0 mi SE 15.0 mph - N/A Rain , Thunderstorm Heavy Thunderstorms and Rain
3:56 AM 48.2 °F - 46.4 °F 93% 29.94 in 10.0 mi SE 13.8 mph - N/A Rain , Thunderstorm Heavy Thunderstorms and Rain
4:15 AM 48.2 °F - 46.4 °F 93% 29.91 in 10.0 mi SE 13.8 mph 19.6 mph N/A Rain Heavy Rain
4:16 AM 48.2 °F - 46.4 °F 93% 29.91 in 10.0 mi SE 13.8 mph 19.6 mph N/A Rain , Thunderstorm Rain
4:35 AM 50.0 °F - 48.2 °F 94% 29.96 in 10.0 mi South 10.4 mph 16.1 mph N/A Rain Rain
4:36 AM 50.0 °F - 48.2 °F 94% 29.96 in 10.0 mi SSE 9.2 mph 16.1 mph N/A Rain Rain
4:55 AM 50.0 °F - 48.2 °F 94% 29.93 in 4.0 mi SSE 16.1 mph - N/A Rain Light Rain
5:15 AM 50.0 °F - 48.2 °F 94% 29.94 in 10.0 mi SSE 12.7 mph - N/A Rain Heavy Rain
5:16 AM 50.0 °F - 48.2 °F 94% 29.93 in 10.0 mi SSE 12.7 mph - N/A Rain Heavy Rain
5:35 AM 48.2 °F - 48.2 °F 100% 29.93 in 10.0 mi SSE 9.2 mph - N/A Rain , Thunderstorm Heavy Thunderstorms and Rain
5:55 AM 48.2 °F - 48.2 °F 100% 29.92 in 10.0 mi SSE 11.5 mph - N/A Rain , Thunderstorm Thunderstorms and Rain
5:56 AM 48.2 °F - 48.2 °F 100% 29.92 in 10.0 mi SE 10.4 mph - N/A Rain , Thunderstorm Thunderstorms and Rain
6:15 AM 48.2 °F - 48.2 °F 100% 29.89 in 10.0 mi SE 11.5 mph - N/A Rain Light Rain
6:35 AM 48.2 °F - 48.2 °F 100% 29.90 in 10.0 mi SSE 11.5 mph - N/A Rain Light Rain
6:55 AM 50.0 °F - 48.2 °F 94% 29.89 in 10.0 mi SSE 11.5 mph - N/A Rain Light Rain
7:15 AM 50.0 °F - 48.2 °F 94% 29.87 in 10.0 mi SSE 11.5 mph 17.3 mph N/A Rain Light Rain
7:16 AM 50.0 °F - 48.2 °F 94% 29.87 in 10.0 mi SE 11.5 mph 17.3 mph N/A Rain Light Rain
7:35 AM 50.0 °F - 48.2 °F 94% 29.88 in 10.0 mi SSE 12.7 mph - N/A Rain , Thunderstorm Light Thunderstorms and Rain
7:36 AM 50.0 °F - 48.2 °F 94% 29.88 in 10.0 mi SSE 15.0 mph - N/A Rain , Thunderstorm Light Thunderstorms and Rain
7:55 AM 50.0 °F - 48.2 °F 94% 29.85 in 10.0 mi SSE 17.3 mph 20.7 mph N/A Thunderstorm Unknown
7:56 AM 50.0 °F - 48.2 °F 94% 29.85 in 10.0 mi SSE 15.0 mph 20.7 mph N/A Thunderstorm Unknown
8:15 AM 51.8 °F - 48.2 °F 88% 29.82 in 10.0 mi SSE 13.8 mph - N/A   Overcast
8:16 AM 51.8 °F - 48.2 °F 88% 29.82 in 10.0 mi SSE 13.8 mph - N/A   Overcast
8:35 AM 50.0 °F - 48.2 °F 94% 29.81 in 10.0 mi SSE 13.8 mph 21.9 mph N/A   Overcast
8:36 AM 50.0 °F - 48.2 °F 94% 29.81 in 10.0 mi SSE 13.8 mph 21.9 mph N/A   Overcast
8:55 AM 50.0 °F - 48.2 °F 94% 29.80 in 10.0 mi SSE 13.8 mph 19.6 mph N/A   Overcast
9:15 AM 51.8 °F - 48.2 °F 88% 29.79 in 10.0 mi SSE 12.7 mph 18.4 mph N/A   Overcast
9:35 AM 51.8 °F - 48.2 °F 88% 29.78 in 3.0 mi SSE 12.7 mph 19.6 mph N/A   Overcast
9:36 AM 51.8 °F - 48.2 °F 88% 29.78 in 3.0 mi SSE 12.7 mph 18.4 mph N/A   Overcast
9:55 AM 51.8 °F - 48.2 °F 88% 29.77 in 2.5 mi SSE 12.7 mph 19.6 mph N/A   Overcast
9:56 AM 51.8 °F - 48.2 °F 88% 29.77 in 3.0 mi SSE 11.5 mph 19.6 mph N/A   Overcast
10:15 AM 51.8 °F - 48.2 °F 88% 29.76 in 3.0 mi SSE 13.8 mph 20.7 mph N/A   Overcast
10:35 AM 51.8 °F - 48.2 °F 88% 29.75 in 3.0 mi SSE 15.0 mph 21.9 mph N/A   Overcast
10:36 AM 51.8 °F - 48.2 °F 88% 29.75 in 2.5 mi SSE 15.0 mph 21.9 mph N/A   Overcast
10:55 AM 51.8 °F - 48.2 °F 88% 29.74 in 3.0 mi SSE 15.0 mph - N/A   Overcast
11:15 AM 51.8 °F - 50.0 °F 94% 29.74 in 7.0 mi South 13.8 mph - N/A   Overcast
11:16 AM 51.8 °F - 50.0 °F 94% 29.74 in 7.0 mi South 12.7 mph - N/A   Overcast
11:35 AM 51.8 °F - 50.0 °F 94% 29.73 in 2.5 mi South 11.5 mph - N/A   Light Drizzle
11:36 AM 51.8 °F - 50.0 °F 94% 29.73 in 2.5 mi South 13.8 mph 17.3 mph N/A   Light Drizzle
11:55 AM 51.8 °F - 51.8 °F 100% 29.73 in 3.0 mi South 11.5 mph - N/A   Overcast
12:15 PM 53.6 °F - 51.8 °F 94% 29.72 in 5.0 mi South 12.7 mph - N/A   Overcast
12:35 PM 53.6 °F - 51.8 °F 94% 29.71 in 7.0 mi South 11.5 mph 16.1 mph N/A   Overcast
12:36 PM 53.6 °F - 51.8 °F 94% 29.71 in 5.0 mi South 12.7 mph 16.1 mph N/A   Overcast
12:55 PM 53.6 °F - 53.6 °F 100% 29.70 in 5.0 mi South 9.2 mph - N/A   Overcast
1:15 PM 55.4 °F - 53.6 °F 94% 29.70 in 10.0 mi South 10.4 mph - N/A   Overcast
1:16 PM 55.4 °F - 53.6 °F 94% 29.70 in 10.0 mi South 9.2 mph - N/A   Overcast
1:35 PM 55.4 °F - 55.4 °F 100% 29.68 in 10.0 mi SSW 6.9 mph - N/A   Overcast
1:55 PM 57.2 °F - 55.4 °F 94% 29.68 in 10.0 mi SSW 10.4 mph - N/A   Overcast
1:56 PM 57.2 °F - 55.4 °F 94% 29.68 in 10.0 mi SSW 11.5 mph - N/A   Overcast
2:15 PM 57.2 °F - 55.4 °F 94% 29.68 in 10.0 mi SW 10.4 mph 17.3 mph N/A   Overcast
2:36 PM 59.0 °F - 53.6 °F 82% 29.68 in 10.0 mi WSW 11.5 mph 18.4 mph N/A   Overcast
2:55 PM 57.2 °F - 51.8 °F 82% 29.69 in 10.0 mi West 18.4 mph 31.1 mph N/A   Overcast
3:15 PM 57.2 °F - 48.2 °F 72% 29.71 in 10.0 mi West 23.0 mph 32.2 mph N/A   Overcast
3:35 PM 55.4 °F - 46.4 °F 72% 29.72 in 10.0 mi West 19.6 mph 31.1 mph N/A   Overcast
3:36 PM 55.4 °F - 46.4 °F 72% 29.72 in 10.0 mi West 18.4 mph 31.1 mph N/A   Overcast
3:55 PM 55.4 °F - 46.4 °F 72% 29.72 in 10.0 mi West 17.3 mph 26.5 mph N/A   Overcast
3:56 PM 55.4 °F - 46.4 °F 72% 29.72 in 10.0 mi West 17.3 mph 26.5 mph N/A   Overcast
4:15 PM 55.4 °F - 44.6 °F 67% 29.72 in 10.0 mi West 20.7 mph 25.3 mph N/A   Overcast
4:16 PM 55.4 °F - 46.4 °F 72% 29.72 in 10.0 mi West 20.7 mph 25.3 mph N/A   Overcast
4:35 PM 55.4 °F - 44.6 °F 67% 29.73 in 10.0 mi West 18.4 mph 31.1 mph N/A   Overcast
4:55 PM 55.4 °F - 44.6 °F 67% 29.74 in 10.0 mi West 21.9 mph 28.8 mph N/A   Overcast
5:15 PM 55.4 °F - 44.6 °F 67% 29.75 in 10.0 mi West 20.7 mph 31.1 mph N/A   Overcast
5:35 PM 55.4 °F - 42.8 °F 63% 29.76 in 10.0 mi West 23.0 mph 31.1 mph N/A   Overcast
5:36 PM 55.4 °F - 42.8 °F 63% 29.76 in 10.0 mi West 21.9 mph 29.9 mph N/A   Overcast
5:55 PM 55.4 °F - 42.8 °F 63% 29.77 in 10.0 mi West 21.9 mph 34.5 mph N/A   Mostly Cloudy
6:15 PM 53.6 °F - 42.8 °F 67% 29.78 in 10.0 mi West 24.2 mph 29.9 mph N/A   Mostly Cloudy
6:35 PM 53.6 °F - 42.8 °F 67% 29.79 in 10.0 mi West 18.4 mph 26.5 mph N/A   Overcast
6:55 PM 53.6 °F - 42.8 °F 67% 29.80 in 10.0 mi West 20.7 mph 29.9 mph N/A   Overcast
7:15 PM 53.6 °F - 42.8 °F 67% 29.81 in 10.0 mi West 18.4 mph 26.5 mph N/A   Mostly Cloudy
7:35 PM 51.8 °F - 42.8 °F 71% 29.82 in 10.0 mi West 16.1 mph 32.2 mph N/A   Scattered Clouds
7:55 PM 51.8 °F - 42.8 °F 71% 29.83 in 10.0 mi West 11.5 mph - N/A   Clear
8:15 PM 50.0 °F - 42.8 °F 76% 29.84 in 10.0 mi West 10.4 mph - N/A   Clear
8:16 PM 50.0 °F - 42.8 °F 76% 29.84 in 10.0 mi West 10.4 mph - N/A   Clear
8:35 PM 50.0 °F - 42.8 °F 76% 29.85 in 10.0 mi West 11.5 mph - N/A   Scattered Clouds
8:55 PM 48.2 °F - 42.8 °F 82% 29.85 in 10.0 mi West 8.1 mph - N/A   Scattered Clouds
9:15 PM 48.2 °F - 42.8 °F 82% 29.86 in 10.0 mi West 10.4 mph - N/A   Clear
9:35 PM 48.2 °F - 42.8 °F 82% 29.87 in 10.0 mi WSW 6.9 mph - N/A   Clear
9:55 PM 46.4 °F 42.9 °F 42.8 °F 87% 29.87 in 10.0 mi WSW 6.9 mph - N/A   Clear
10:15 PM 46.4 °F 43.5 °F 42.8 °F 87% 29.87 in 10.0 mi WSW 5.8 mph - N/A   Scattered Clouds
10:16 PM 46.4 °F 43.5 °F 42.8 °F 87% 29.87 in 10.0 mi WSW 5.8 mph - N/A   Scattered Clouds
10:35 PM 46.4 °F 42.4 °F 42.8 °F 87% 29.87 in 10.0 mi West 8.1 mph - N/A   Scattered Clouds
10:55 PM 48.2 °F - 42.8 °F 82% 29.88 in 10.0 mi West 9.2 mph - N/A   Clear
11:15 PM 48.2 °F - 42.8 °F 82% 29.88 in 10.0 mi West 11.5 mph 17.3 mph N/A   Clear
11:35 PM 48.2 °F - 42.8 °F 82% 29.89 in 10.0 mi WSW 10.4 mph - N/A   Clear
11:55 PM 48.2 °F - 42.8 °F 82% 29.89 in 10.0 mi WSW 5.8 mph - N/A   Clear